This is the latest recevied weather packets stored in our database for station/object K4CRS-13. If no packets are shown the sender has not sent any weather packets the latest 10 day(s).
| Time | Temp. | Humidity | Pressure | Rain* | Wind** | Luminosity | Snow |
|---|---|---|---|---|---|---|---|
| 1777933902 | 25° C | 43% | 1047.1 hPa | 0 mm | - | 185 W/m² | - |
| 1777933600 | 25.56° C | 42% | 1047 hPa | 0 mm | - | 264 W/m² | - |
| 1777933296 | 25.56° C | 42% | 1047 hPa | 0 mm | - | 283 W/m² | - |
| 1777932994 | 25.56° C | 41% | 1047.3 hPa | 0 mm | - | 301 W/m² | - |
| 1777932691 | 25.56° C | 42% | 1047.3 hPa | 0 mm | - | 308 W/m² | - |
| 1777932387 | 25° C | 42% | 1047.3 hPa | 0 mm | - | 331 W/m² | - |
| 1777932085 | 25° C | 43% | 1047.2 hPa | 0 mm | - | 362 W/m² | - |
| 1777931781 | 25° C | 43% | 1047.3 hPa | 0 mm | - | 358 W/m² | - |
| 1777931479 | 25° C | 43% | 1047.5 hPa | 0 mm | - | 391 W/m² | - |
| 1777931174 | 25° C | 45% | 1047.5 hPa | 0 mm | - | 414 W/m² | - |
| 1777930871 | 26.11° C | 44% | 1047.4 hPa | 0 mm | - | 91 W/m² | - |
| 1777930567 | 25.56° C | 43% | 1047.4 hPa | 0 mm | - | 436 W/m² | - |
| 1777930264 | 25.56° C | 41% | 1047.5 hPa | 0 mm | - | 462 W/m² | - |
| 1777929960 | 26.11° C | 42% | 1047.2 hPa | 0 mm | - | 477 W/m² | - |
| 1777929658 | 26.11° C | 42% | 1047.5 hPa | 0 mm | - | 485 W/m² | - |
| 1777929354 | 26.11° C | 41% | 1047.6 hPa | 0 mm | - | 509 W/m² | - |
| 1777929051 | 26.11° C | 42% | 1047.3 hPa | 0 mm | - | 531 W/m² | - |
| 1777928749 | 26.11° C | 42% | 1047.5 hPa | 0 mm | - | 542 W/m² | - |
| 1777928445 | 26.11° C | 42% | 1047.6 hPa | 0 mm | - | 557 W/m² | - |
| 1777928143 | 26.11° C | 42% | 1047.7 hPa | 0 mm | - | 583 W/m² | - |
| 1777927841 | 26.11° C | 39% | 1047.7 hPa | 0 mm | - | 581 W/m² | - |
| 1777927538 | 26.11° C | 40% | 1048 hPa | 0 mm | - | 591 W/m² | - |
| 1777927238 | 26.11° C | 41% | 1047.9 hPa | 0 mm | - | 599 W/m² | - |
| 1777926935 | 26.11° C | 40% | 1048.1 hPa | 0 mm | - | 612 W/m² | - |
| 1777926632 | 26.11° C | 39% | 1048.2 hPa | 0 mm | - | 626 W/m² | - |
* Rain latest hour (hover to see other rain measurements)
** Current wind speed in m/s (hover to see current wind gust speed)